Time,B instrument,Bx,By,Bz,sigma B,Ion instrument,Status,Tp_par,Tp_perp,carrot,r_sun,clat,clong,earth_he_angle,n_p,vp_x,vp_y,vp_z,vth_p_par,vth_p_perp
1980-04-18 00:01:42,1,-8.65,4.925,-6.025,0.700892,1,1,158001.0,174778.0,1694,0.74110478,-5.3427486,237.53345,275.49438,30.5087,335.415,5.47113,-22.2061,51.0726,53.7157
1980-04-18 00:02:56,1,-7.625,5.5,-6.325,0.297909,1,1,159641.0,167088.0,1694,0.74109828,-5.3428211,237.52197,275.49463,28.742,336.896,22.2001,-21.4331,51.3369,52.5207
1980-04-18 00:08:20,1,-8.66667,10.6667,2.0,1.22384,1,1,84308.1,88351.0,1694,0.7410593,-5.343257,237.47217,275.49561,26.2603,338.715,47.0912,-0.927288,37.3072,38.1912
1980-04-18 00:11:02,1,-5.36667,9.7,4.3,1.69771,1,1,150723.0,178135.0,1694,0.74103981,-5.3434753,237.44946,275.49634,26.6896,346.226,36.667,19.5449,49.8825,54.2291
1980-04-18 00:13:44,1,-12.35,1.0,-7.3,0.471699,1,1,93838.9,137238.0,1694,0.74102682,-5.3436203,237.42627,275.49658,22.0988,336.592,6.33228,-17.9699,39.3595,47.5986
1980-04-18 00:16:26,1,-11.1667,-0.966667,-12.9,0.819214,1,1,57210.0,84974.5,1694,0.74100727,-5.3438387,237.39941,275.49707,15.9851,339.07,15.183,-15.6523,30.7322,37.4544
1980-04-18 00:19:08,1,-11.25,5.825,-9.3,0.379967,1,1,56632.9,103693.0,1694,0.74098778,-5.3440571,237.37646,275.49756,17.8586,340.265,27.0509,-12.4799,30.5768,41.3746
1980-04-18 00:21:50,1,-9.125,12.725,0.425,1.69577,1,1,89262.9,67857.8,1694,0.74097478,-5.344202,237.35352,275.49805,14.691,352.675,18.0576,0.390803,38.3878,33.4702
1980-04-18 00:29:54,-1,nan,nan,nan,nan,1,3,nan,nan,1694,0.74092281,-5.3447838,237.28076,275.49951,nan,330.883,10.1132,31.5609,nan,nan
1980-04-18 00:32:36,1,-6.6,11.45,15.3,0.438748,1,1,49113.5,63428.6,1694,0.74090326,-5.3450012,237.25391,275.5,14.6698,349.797,1.7532,38.7953,28.4746,32.3594
1980-04-18 00:35:20,1,-6.56667,9.93333,16.2,0.194365,1,1,49223.0,59321.9,1694,0.74088377,-5.3452196,237.23096,275.50049,14.8784,353.836,5.09934,36.4176,28.5064,31.2943
1980-04-18 00:38:02,1,-8.4,7.8,16.1333,0.478423,1,1,74306.1,74148.0,1694,0.74086428,-5.345438,237.2041,275.50098,18.2036,354.12,6.05924,45.3647,35.0244,34.9871
1980-04-18 00:40:44,1,1.225,13.55,14.625,0.496236,1,1,59318.6,68766.5,1694,0.74085128,-5.345583,237.18115,275.50146,16.5054,376.439,14.1339,31.5165,31.2935,33.6935
1980-04-18 00:43:26,1,-2.525,14.725,13.15,0.752496,1,1,51016.0,72087.1,1694,0.74083179,-5.3458014,237.1582,275.50195,16.6897,365.41,20.8613,26.1308,29.0209,34.4974
1980-04-18 00:46:08,1,-2.525,8.675,18.0,1.22627,1,1,53034.9,65352.0,1694,0.74081224,-5.3460188,237.13135,275.50244,15.0175,359.73,2.54446,42.6622,29.5896,32.8464
1980-04-18 00:48:50,1,-3.4,11.025,16.675,1.79826,1,1,48698.2,76889.2,1694,0.74079925,-5.3461647,237.1084,275.50293,15.056,368.504,-0.841277,48.8902,28.354,35.6279
1980-04-18 00:51:32,1,-3.1,11.9,16.7667,0.485341,1,1,44054.6,70050.6,1694,0.74077976,-5.3463831,237.08545,275.50342,15.4093,363.426,4.18874,43.8134,26.9683,34.0066
1980-04-18 00:54:14,1,-2.93333,14.9333,12.8667,0.553775,1,1,44197.1,69236.2,1694,0.74076027,-5.3466005,237.05859,275.50391,15.9155,371.279,23.1494,19.8372,27.0119,33.8084
1980-04-18 00:56:56,1,-3.86667,13.2,15.3,0.555778,1,1,48019.7,69230.2,1694,0.74074727,-5.3467464,237.03564,275.50439,15.9334,359.181,13.6785,33.6234,28.1558,33.8069
1980-04-18 00:59:38,1,-1.1,14.4333,14.3667,2.97508,1,1,44847.0,72645.0,1694,0.74072778,-5.3469639,237.0127,275.50488,15.6681,365.748,18.6753,27.0935,27.2098,34.6307
1980-04-18 01:02:20,1,-3.9,15.65,12.725,0.399218,1,1,50745.1,73112.9,1694,0.74070823,-5.3471823,236.98584,275.50537,15.142,362.83,27.721,22.9088,28.9438,34.742
1980-04-18 01:05:02,1,-6.4,15.475,11.925,1.06007,1,1,47555.0,69527.7,1694,0.74068874,-5.3474007,236.96289,275.50586,16.5521,351.865,22.9711,20.0595,28.0192,33.8795
1980-04-18 01:07:44,1,-6.15,15.05,12.7,0.273861,1,1,48589.2,77125.7,1694,0.74067569,-5.3475456,236.93994,275.50635,17.4033,357.834,23.7492,27.6285,28.3223,35.6827
1980-04-18 01:10:26,1,-7.85,14.775,12.05,0.389711,1,1,44697.5,77641.7,1694,0.7406562,-5.347764,236.91309,275.50684,16.8926,340.24,16.5783,23.4959,27.1644,35.8019
1980-04-18 01:13:08,1,-8.1,13.1667,14.1333,0.527046,1,1,40230.2,72004.7,1694,0.74063671,-5.3479815,236.89014,275.50732,16.6757,347.122,9.61992,32.1922,25.7712,34.4777
1980-04-18 01:15:50,1,-8.7,15.1,10.5333,1.48174,1,1,47866.6,72263.3,1694,0.74062365,-5.3481274,236.86694,275.50757,16.9467,342.933,18.8895,15.2042,28.1109,34.5396
1980-04-18 01:18:32,1,-8.93333,14.5333,12.0,0.253859,1,1,48129.1,73320.3,1694,0.74060416,-5.3483448,236.84009,275.50806,16.8646,345.982,11.7162,27.1632,28.1878,34.7913
1980-04-18 01:21:14,1,-7.86667,16.2,9.46667,0.452155,1,1,45023.3,74179.1,1694,0.74058461,-5.3485632,236.81738,275.50879,17.2226,349.449,17.9733,22.7495,27.2632,34.9944
1980-04-18 01:23:56,1,-7.96667,16.5667,8.3,0.635959,1,1,47787.4,76070.3,1694,0.74057162,-5.3487091,236.79419,275.50903,18.4074,346.843,13.9983,24.9397,28.0876,35.4377
1980-04-18 01:26:38,1,-8.93333,15.8667,8.9,0.194365,1,1,42598.8,74323.5,1694,0.74055213,-5.3489265,236.76733,275.50952,17.2871,340.429,17.7212,17.2156,26.519,35.0285
1980-04-18 01:29:20,1,-6.5,16.95,4.275,0.777416,1,1,51496.1,90207.1,1694,0.74053258,-5.3491449,236.74438,275.51001,20.0531,344.283,25.5797,13.7308,29.1572,38.5903
1980-04-18 01:32:02,1,-7.4,15.7,8.0,0.0,1,1,49051.9,87605.5,1694,0.74051309,-5.3493624,236.72144,275.5105,18.5938,344.471,20.9614,23.757,28.4568,38.0298
1980-04-18 01:34:44,1,-8.43333,16.0333,5.53333,0.761577,1,1,55879.5,88133.2,1694,0.74050003,-5.3495083,236.69458,275.51099,18.6134,344.024,22.0782,16.9454,30.3728,38.1441
1980-04-18 01:37:26,1,-8.56667,16.0,3.66667,0.362093,1,1,59286.6,71639.1,1694,0.74048054,-5.3497267,236.67163,275.51147,19.0035,342.328,23.5097,16.6918,31.285,34.3901
1980-04-18 01:40:08,1,-8.9,15.8667,4.5,0.359011,1,1,57005.2,89368.4,1694,0.74046105,-5.3499441,236.64868,275.51196,19.1282,338.294,21.4631,19.56,30.6772,38.4105
1980-04-18 01:42:50,1,-7.93333,16.0,4.4,0.149071,1,1,56655.9,91733.5,1694,0.740448,-5.35009,236.62183,275.51245,19.5425,342.219,24.0377,17.5907,30.583,38.9154
1980-04-18 01:45:32,1,-8.7,15.8,1.4,0.476095,1,1,53726.6,82427.7,1694,0.74042851,-5.3503075,236.59888,275.51294,18.2126,340.807,23.0177,5.8293,29.7819,36.8888
1980-04-18 01:48:14,1,-7.975,16.25,0.575,0.355317,1,1,48303.0,87065.6,1694,0.74040896,-5.3505259,236.57593,275.51343,17.5318,340.487,24.8177,9.39545,28.2387,37.9124
1980-04-18 01:50:56,1,-8.175,15.4,1.325,0.709753,1,1,51785.2,98940.4,1694,0.74039596,-5.3506708,236.54883,275.51367,18.0355,335.189,21.1069,12.4541,29.2389,40.4152
1980-04-18 01:53:38,1,-5.675,13.1,-5.425,0.757463,1,1,84222.3,112474.0,1694,0.74037647,-5.3508892,236.52588,275.51416,19.4603,348.892,21.9903,-19.1316,37.2882,43.0908
1980-04-18 01:56:20,1,-4.73333,15.5,1.6,0.834,1,1,68558.4,124522.0,1694,0.74035692,-5.3511076,236.50317,275.51489,19.9704,348.459,25.7667,3.8188,33.6425,45.3399
1980-04-18 01:59:02,1,-6.53333,14.4333,1.96667,0.886942,1,1,64001.3,94931.4,1694,0.74033743,-5.351325,236.47632,275.51538,14.7177,347.566,29.7646,3.09596,32.5051,39.5879
1980-04-18 02:01:44,1,2.46667,16.1333,-0.0333333,0.945163,1,1,83783.8,97615.4,1694,0.74032438,-5.3514709,236.45313,275.51563,17.4432,376.114,25.6818,-5.80428,37.191,40.1437
1980-04-18 02:04:26,1,-7.23333,15.0,5.73333,0.352767,1,1,66589.2,93731.8,1694,0.74030489,-5.3516884,236.43018,275.51611,15.89,336.442,23.7829,18.4849,33.1558,39.337
1980-04-18 02:07:08,1,-5.65,15.2,5.8,0.259808,1,1,76444.0,104159.0,1694,0.74028534,-5.3519068,236.40356,275.51685,18.1534,337.841,25.3522,17.5775,35.5246,41.4673
1980-04-18 02:09:50,1,-6.9,14.1667,8.03333,0.50111,1,1,71429.9,116080.0,1694,0.74027228,-5.3520517,236.38037,275.51709,18.0901,335.914,19.2506,33.9037,34.3398,43.7761
1980-04-18 02:12:32,1,-9.175,13.225,8.1,0.422788,1,1,62834.6,102082.0,1694,0.74025279,-5.3522692,236.35742,275.51758,16.9965,329.765,16.5392,30.0652,32.2075,41.0518
1980-04-18 02:15:14,1,-5.0,15.425,1.1,0.383243,1,1,69604.7,92661.8,1694,0.74023324,-5.3524876,236.33081,275.51831,18.3151,347.907,29.3862,7.48635,33.8982,39.1118
1980-04-18 02:17:56,1,-2.0,15.6,4.23333,0.555778,1,1,78259.0,117264.0,1694,0.74022019,-5.3526325,236.30762,275.51855,21.7639,356.021,28.2421,23.41,35.9439,43.9988
1980-04-18 02:20:38,1,-6.3,13.3333,-4.06667,1.65664,1,1,76316.1,97189.4,1694,0.74020064,-5.3528509,236.28467,275.51904,19.9321,341.406,20.4376,-9.84439,35.4949,40.056
1980-04-18 02:23:20,1,-8.36667,10.7333,-6.73333,0.365148,1,1,79349.0,86419.2,1694,0.74018115,-5.3530684,236.25781,275.51953,17.4542,335.982,7.68039,-24.9743,36.1933,37.7714
1980-04-18 02:26:02,1,-9.66667,10.1667,-5.7,0.487625,1,1,81651.3,97248.0,1694,0.7401616,-5.3532858,236.23511,275.52026,20.6601,332.734,9.26833,-18.967,36.7147,40.0681
1980-04-18 02:28:44,1,-9.6,7.96667,-8.4,0.498888,1,1,83079.6,96623.5,1694,0.74014854,-5.3534317,236.21191,275.52051,21.1995,332.74,0.126342,-24.84,37.0344,39.9392
1980-04-18 02:31:26,1,-6.6,10.15,-8.625,0.494343,1,1,70928.8,93582.2,1694,0.74012905,-5.3536491,236.18506,275.521,17.0518,337.144,-0.684012,-28.954,34.2191,39.3056
1980-04-18 02:34:08,1,-8.175,8.525,-9.55,0.425735,1,1,58725.6,110470.0,1694,0.7401095,-5.3538675,236.16211,275.52148,19.7647,340.043,4.78937,-30.151,31.1366,42.7052
1980-04-18 02:36:50,1,0.3,14.525,-3.3,0.326917,1,1,82577.4,99390.7,1694,0.74009645,-5.3540125,236.13525,275.52197,19.2598,362.921,25.4666,-13.5174,36.9223,40.5071
1980-04-18 02:39:32,1,-4.53333,9.56667,-9.13333,1.0198,1,1,67846.6,96728.4,1694,0.74007696,-5.3542299,236.1123,275.52246,16.6381,348.062,8.46186,-31.6479,33.4674,39.9609
1980-04-18 02:42:14,1,-5.5,9.43333,-9.33333,0.964941,1,1,65679.4,106107.0,1694,0.74008518,-5.2599854,236.00275,275.43634,16.8958,346.962,3.97522,-37.3941,32.9285,41.8532
1980-04-18 02:42:35,1,-6.55,10.175,-7.925,0.721976,1,1,85322.7,86433.5,1694,0.74005741,-5.3544483,236.08545,275.52295,15.5151,352.979,23.013,18.1574,37.531,37.7745
1980-04-18 02:44:56,1,-5.86667,5.83333,-11.9333,0.867948,1,1,64129.2,103337.0,1694,0.74006766,-5.2601862,235.97586,275.4368,18.3325,349.003,-2.98591,-30.3355,32.5376,41.3034
1980-04-18 02:47:38,1,-5.5,2.5,-13.0667,0.584998,1,1,65729.9,103630.0,1694,0.74002486,-5.3548117,236.03955,275.52393,16.4213,348.976,-12.6121,-31.9751,32.9412,41.3619
1980-04-18 02:50:20,1,-4.95,8.1,-11.0,0.287228,1,1,55915.4,103610.0,1694,0.74000531,-5.3550291,236.0166,275.52441,15.8088,345.771,12.2339,-23.3669,30.3825,41.3578
1980-04-18 02:53:02,1,-2.525,9.9,13.575,0.537355,1,1,86944.5,93900.8,1694,0.73998576,-5.3552465,235.98975,275.5249,17.5139,355.515,8.34314,56.1816,37.886,39.3724
1980-04-18 02:55:42,1,-3.75,11.275,13.0,0.799609,1,1,73379.7,95381.0,1694,0.73997277,-5.3553925,235.9668,275.52539,16.6159,350.937,7.75017,46.1862,34.8053,39.6816
1980-04-18 02:58:24,1,-5.175,13.7,8.5,1.03047,1,1,73668.2,65267.4,1694,0.73995322,-5.3556099,235.94385,275.52588,16.4157,349.816,10.8932,26.9036,34.8737,32.8251
1980-04-18 03:04:11,-1,nan,nan,nan,nan,1,3,nan,nan,1694,0.73991412,-5.3560457,235.89014,275.52686,nan,351.343,27.4489,-3.22255,nan,nan
1980-04-18 03:25:47,-1,nan,nan,nan,nan,1,3,nan,nan,1694,0.73977727,-5.3575726,235.69873,275.53076,nan,339.717,33.5946,5.70839,nan,nan
1980-04-18 03:47:23,-1,nan,nan,nan,nan,1,3,nan,nan,1694,0.73963386,-5.3591719,235.50342,275.53467,nan,338.31,11.8267,-17.8795,nan,nan
1980-04-18 04:08:59,-1,nan,nan,nan,nan,1,3,nan,nan,1694,0.73949695,-5.3606977,235.30811,275.53857,nan,358.434,10.2898,-27.1839,nan,nan
1980-04-18 04:30:35,-1,nan,nan,nan,nan,1,3,nan,nan,1694,0.73935342,-5.3622971,235.11279,275.54248,nan,347.138,1.82881,-29.702,nan,nan
1980-04-18 04:52:11,-1,nan,nan,nan,nan,1,3,nan,nan,1694,0.73920995,-5.3638964,234.92163,275.54663,nan,339.468,12.6991,-11.8316,nan,nan
1980-04-18 05:13:47,-1,nan,nan,nan,nan,1,4,nan,nan,1694,0.73907292,-5.3654222,234.72607,275.55029,nan,nan,nan,nan,nan,nan
1980-04-18 05:35:23,-1,nan,nan,nan,nan,1,3,nan,nan,1694,0.73892927,-5.3670216,234.53076,275.5542,nan,376.094,19.996,-12.0857,nan,nan
1980-04-18 05:56:59,-1,nan,nan,nan,nan,1,3,nan,nan,1694,0.73879218,-5.3685484,234.33545,275.55811,nan,339.083,4.67004,-14.2222,nan,nan
1980-04-18 06:18:35,-1,nan,nan,nan,nan,1,3,nan,nan,1694,0.73864841,-5.3701468,234.14404,275.56201,nan,330.471,-0.11675,-2.80262,nan,nan
1980-04-18 06:40:11,-1,nan,nan,nan,nan,1,3,nan,nan,1694,0.73850465,-5.3717461,233.94897,275.56616,nan,366.93,28.8672,-6.33387,nan,nan
1980-04-18 07:01:47,-1,nan,nan,nan,nan,1,3,nan,nan,1694,0.73836744,-5.3732729,233.75342,275.56982,nan,333.934,12.9705,-19.9107,nan,nan
1980-04-18 07:23:23,-1,nan,nan,nan,nan,1,3,nan,nan,1694,0.73822355,-5.3748722,233.56226,275.57397,nan,375.498,20.5101,1.06764,nan,nan
1980-04-18 07:44:59,-1,nan,nan,nan,nan,1,3,nan,nan,1694,0.73808622,-5.3763981,233.36694,275.57788,nan,341.298,-43.3122,-61.9292,nan,nan
1980-04-18 08:06:35,-1,nan,nan,nan,nan,1,3,nan,nan,1694,0.73794228,-5.3779974,233.17163,275.58179,nan,350.594,-52.81,-50.9739,nan,nan
1980-04-18 08:28:11,-1,nan,nan,nan,nan,1,3,nan,nan,1694,0.73779827,-5.3795958,232.97656,275.58594,nan,352.295,-64.9754,-53.8553,nan,nan
1980-04-18 08:49:47,-1,nan,nan,nan,nan,1,3,nan,nan,1694,0.73766083,-5.3811216,232.78516,275.58984,nan,352.857,-68.339,-54.5254,nan,nan
1980-04-18 09:11:23,-1,nan,nan,nan,nan,1,3,nan,nan,1694,0.7375167,-5.3827209,232.59009,275.59399,nan,349.527,-70.354,-59.2854,nan,nan
1980-04-18 09:32:59,-1,nan,nan,nan,nan,1,3,nan,nan,1694,0.73737913,-5.3842478,232.39478,275.5979,nan,352.795,-82.743,-50.6764,nan,nan
1980-04-18 09:54:35,-1,nan,nan,nan,nan,1,3,nan,nan,1694,0.73723501,-5.3858461,232.19946,275.60181,nan,355.987,-91.089,-34.1051,nan,nan
1980-04-18 10:16:11,-1,nan,nan,nan,nan,1,3,nan,nan,1694,0.73709083,-5.3874464,232.0083,275.60596,nan,358.381,-50.759,-76.4864,nan,nan
1980-04-18 10:37:47,-1,nan,nan,nan,nan,1,3,nan,nan,1694,0.73695308,-5.3889742,231.81299,275.60986,nan,381.97,9.35628,7.68877,nan,nan
1980-04-18 10:59:23,-1,nan,nan,nan,nan,1,3,nan,nan,1694,0.7368089,-5.3905745,231.61792,275.61401,nan,400.864,-48.6598,-60.1099,nan,nan
1980-04-18 11:20:59,-1,nan,nan,nan,nan,1,3,nan,nan,1694,0.73667103,-5.3921013,231.42261,275.61792,nan,351.902,-76.717,-61.129,nan,nan
1980-04-18 11:42:35,-1,nan,nan,nan,nan,1,3,nan,nan,1694,0.73652667,-5.3937006,231.23145,275.62207,nan,343.567,-70.9313,-59.9713,nan,nan
1980-04-18 13:12:53,-1,nan,nan,nan,nan,1,3,nan,nan,1694,0.73595887,-5.3074279,230.3335,275.55225,nan,366.563,-45.2365,30.5086,nan,nan
1980-04-18 13:14:14,1,-1.87143,-4.67143,7.18571,0.453107,1,1,183808.0,132670.0,1694,0.73594999,-5.3075314,230.32205,275.55252,12.6759,365.295,-42.6343,29.9031,55.0858,46.7999
1980-04-18 13:16:48,1,-3.54286,-4.78571,7.61429,0.890769,1,1,192465.0,126621.0,1694,0.73591578,-5.4004631,230.38159,275.6394,12.9101,359.233,-41.5613,31.5038,56.3681,45.7206
1980-04-18 13:16:56,1,-3.51429,-4.51429,7.88571,0.581343,1,1,151985.0,133125.0,1694,0.73590922,-5.4005356,230.38184,275.63965,13.4777,354.417,-41.9864,28.3798,50.0908,46.8801
1980-04-18 13:18:19,1,-4.04286,-3.5,7.32857,0.517056,1,1,164755.0,136507.0,1694,0.73589605,-5.4006805,230.37061,275.64014,13.4734,355.658,-39.8221,28.3383,52.1527,47.4717
1980-04-18 13:19:40,1,-3.98571,-1.74286,7.61429,1.30024,1,1,180418.0,120783.0,1694,0.73588949,-5.400754,230.35889,275.64014,12.7901,356.762,-31.2119,32.3737,54.5755,44.654
1980-04-18 13:21:01,1,-4.77143,2.88571,7.35714,0.694879,1,1,182030.0,129437.0,1694,0.73587632,-5.4008989,230.34766,275.64063,11.3768,346.775,-9.11756,26.5897,54.8188,46.2261
1980-04-18 13:22:22,1,-4.0375,2.825,8.4875,0.721327,1,1,125427.0,111473.0,1694,0.73586977,-5.4009714,230.33228,275.64087,11.3505,349.269,-8.00057,35.1951,45.5044,42.8985
1980-04-18 13:23:43,1,-4.51667,1.33333,7.45,0.639878,1,1,132231.0,129312.0,1694,0.73586321,-5.4010448,230.3208,275.64111,11.7926,346.283,-9.35722,31.9153,46.7224,46.2037
1980-04-18 13:25:04,1,-4.58571,1.61429,7.52857,0.432836,1,1,126405.0,112915.0,1694,0.73585004,-5.4011898,230.30933,275.64136,12.0167,344.803,-11.834,32.9283,45.6814,43.1752
1980-04-18 13:26:25,1,-0.985714,3.92857,5.75714,0.484031,1,1,180645.0,142601.0,1694,0.73584348,-5.4012623,230.29785,275.6416,13.0504,366.637,5.5755,22.3734,54.6098,48.5199
1980-04-18 13:27:46,1,-3.44286,1.87143,8.65714,0.677028,1,1,148014.0,131067.0,1694,0.73583686,-5.4013348,230.28638,275.64185,11.9048,354.612,-6.07843,36.7182,49.4322,46.5162
1980-04-18 13:29:07,1,-2.28571,4.01429,7.61429,0.4607,1,1,121646.0,117247.0,1694,0.73582375,-5.4014807,230.2749,275.64209,11.8629,356.951,4.09627,35.6314,44.8132,43.9956
1980-04-18 13:30:28,-1,nan,nan,nan,nan,1,4,nan,nan,1694,0.73581719,-5.4015532,230.25952,275.64233,nan,nan,nan,nan,nan,nan
1980-04-18 13:31:49,1,-1.3875,2.225,9.55,1.87362,1,1,151603.0,100241.0,1694,0.73581058,-5.4016256,230.24805,275.64258,11.1736,371.098,-9.42688,45.8942,50.0278,40.6801
1980-04-18 13:33:10,1,0.185714,3.9,9.08571,0.449943,1,1,145030.0,112520.0,1694,0.73579746,-5.4017715,230.23657,275.64282,12.1431,373.98,2.3635,38.2618,48.9313,43.0995
1980-04-18 13:34:31,1,-2.08571,4.05714,8.91429,0.237332,1,1,125696.0,121132.0,1694,0.73579085,-5.401844,230.2251,275.64307,11.4626,357.341,3.86823,44.5045,45.5531,44.7184
1980-04-18 13:35:52,1,-0.314286,3.78571,9.32857,0.608444,1,1,138027.0,109805.0,1694,0.73578429,-5.4019165,230.21362,275.64331,11.3464,363.064,-1.65408,40.0444,47.7353,42.5764
1980-04-18 13:37:13,1,1.37143,3.94286,7.95714,0.62662,1,1,132380.0,132390.0,1694,0.73577112,-5.4020624,230.20215,275.64355,12.3703,374.663,2.75159,38.3818,46.7487,46.7505
1980-04-18 13:38:34,1,1.05,3.825,8.25,0.408503,1,1,132273.0,166653.0,1694,0.73576456,-5.4021349,230.18677,275.6438,13.1019,371.375,-1.07091,37.0808,46.7297,52.4523
1980-04-18 13:39:55,1,0.8125,4.9125,7.325,0.51387,1,1,120966.0,150103.0,1694,0.73575801,-5.4022074,230.17529,275.64404,11.6778,374.5,9.94912,31.6464,44.6878,49.7797
1980-04-18 13:41:16,1,-7.25714,-1.25714,8.07143,0.589015,1,1,160924.0,94089.7,1694,0.73574483,-5.4023523,230.16406,275.64453,12.5888,341.06,-21.4126,31.2021,51.5428,39.412
1980-04-18 13:42:37,1,-7.34286,-1.85714,8.25714,1.33264,1,1,121583.0,77202.3,1694,0.73573828,-5.4024258,230.15234,275.64453,11.3324,337.338,-27.6372,27.9297,44.8016,35.7004
1980-04-18 13:43:58,1,-8.45,-2.93333,7.26667,0.730487,1,1,117810.0,74076.8,1694,0.73573172,-5.4024982,230.14087,275.64478,11.2935,337.947,-27.1554,29.1548,44.1011,34.9703
1980-04-18 13:45:19,1,-7.5,-1.63333,6.48333,1.91927,1,1,143144.0,92213.4,1694,0.73571855,-5.4026432,230.12964,275.64526,12.5224,330.268,-35.7453,14.4474,48.6121,39.0171
1980-04-18 13:46:40,1,-0.371429,4.04286,8.9,1.31537,1,1,181965.0,98894.1,1694,0.73571199,-5.4027166,230.11426,275.64551,12.7222,364.855,-5.10145,34.7699,54.809,40.4057
1980-04-18 13:48:01,1,-5.71429,-2.44286,8.57143,1.14642,1,1,178280.0,94387.4,1694,0.73569882,-5.4028616,230.10278,275.64575,12.9262,336.663,-32.1391,34.1391,54.2512,39.4743
1980-04-18 13:49:22,1,-3.5,2.04286,9.64286,0.755389,1,1,181738.0,109543.0,1694,0.73569226,-5.4029341,230.09131,275.646,13.8322,349.669,-9.79817,39.0203,54.7748,42.5257
1980-04-18 13:50:43,1,-7.61429,2.41429,5.05714,2.03801,1,1,161828.0,90340.4,1694,0.73568565,-5.4030066,230.07983,275.64624,12.5336,328.526,-6.41068,18.8349,51.6873,38.6188
1980-04-18 13:52:04,1,-7.22857,-1.75714,5.85714,2.83369,1,1,365919.0,94584.4,1694,0.73567253,-5.4031525,230.06836,275.64648,16.2688,320.748,-31.9488,31.5378,77.7232,39.5155
1980-04-18 13:53:25,1,-4.58333,3.56667,8.16667,0.615765,1,1,168059.0,103885.0,1694,0.73566598,-5.4032249,230.05298,275.64673,12.7613,345.417,-1.97282,24.5726,52.6731,41.4129
1980-04-18 13:54:46,1,-2.16667,5.86667,7.33333,0.270801,1,1,183479.0,98643.6,1694,0.73565936,-5.4032974,230.0415,275.64697,12.8803,359.041,6.49595,26.8024,55.0365,40.3545
1980-04-18 13:56:07,1,-4.0,4.95,7.58333,0.300925,1,1,138297.0,99645.1,1694,0.73564625,-5.4034433,230.03003,275.64722,12.2119,346.189,6.51199,30.4942,47.782,40.5589
1980-04-18 13:57:28,1,-3.1,6.55714,6.05714,0.305728,1,1,185475.0,99081.8,1694,0.73563963,-5.4035158,230.01855,275.64746,13.8526,350.449,10.3287,20.888,55.3351,40.4441
1980-04-18 13:58:49,1,-2.95714,6.8,4.67143,2.047,1,1,122112.0,109405.0,1694,0.73563308,-5.4035883,230.00708,275.64771,13.5654,349.57,17.3182,-7.49123,44.8991,42.4988
1980-04-18 14:00:10,1,-5.68571,5.42857,5.42857,1.79512,1,1,137388.0,100979.0,1694,0.73561996,-5.4037342,229.99585,275.64819,12.5053,346.993,16.6675,15.4884,47.6247,40.8295
1980-04-18 14:01:31,1,-2.5,6.84286,6.47143,0.309707,1,1,118144.0,77300.4,1694,0.73561335,-5.4038067,229.98022,275.64819,10.364,352.134,13.9636,25.3943,44.1636,35.7231
1980-04-18 14:02:52,1,-2.02857,7.58571,5.48571,0.439387,1,1,169157.0,98125.1,1694,0.73560679,-5.4038792,229.96875,275.64844,13.2252,356.069,12.9717,21.8621,52.8449,40.2483
1980-04-18 14:04:13,1,-1.65,7.5875,5.65,0.918474,1,1,118004.0,109892.0,1694,0.73559362,-5.4040251,229.95752,275.64893,12.0105,358.209,22.0068,21.9131,44.1373,42.5933
1980-04-18 14:05:34,1,-1.875,7.175,6.0875,0.917793,1,1,143258.0,93563.1,1694,0.735587,-5.4040976,229.9458,275.64893,12.4446,362.255,21.2828,17.8762,48.6314,39.3016
1980-04-18 14:06:55,1,-3.6,5.63333,7.13333,0.520683,1,1,179155.0,97327.0,1694,0.73558044,-5.40417,229.93433,275.64917,11.5414,350.381,9.40398,29.3666,54.3842,40.0843
1980-04-18 14:08:16,1,-2.45714,6.88571,5.22857,0.537188,1,1,186285.0,97047.0,1694,0.73556727,-5.4043159,229.9231,275.64966,13.1003,359.298,18.3107,16.1621,55.4557,40.0266
1980-04-18 14:09:37,1,-2.42857,5.68571,4.25714,3.33295,1,1,150051.0,94839.3,1694,0.73556072,-5.4043884,229.90747,275.64966,11.3129,358.752,13.5394,22.5713,49.7712,39.5687
1980-04-18 14:10:58,1,-5.05714,6.08571,1.7,1.78108,1,1,219207.0,81330.4,1694,0.7355541,-5.4044609,229.896,275.6499,13.3246,343.214,7.24006,1.87925,60.1568,36.6424
1980-04-18 14:12:19,1,3.3625,6.6875,7.1125,1.1809,1,1,118053.0,96127.7,1694,0.73554099,-5.4046068,229.88477,275.65039,11.9984,389.038,24.3166,23.1285,44.1465,39.8366
1980-04-18 14:13:40,1,4.175,6.6125,6.6,1.031,1,1,180448.0,93772.8,1694,0.73553437,-5.4046793,229.87305,275.65039,11.9502,389.578,18.4754,28.9756,54.58,39.3456
1980-04-18 14:15:01,1,1.4125,7.725,6.725,0.849908,1,1,107048.0,92607.6,1694,0.73552126,-5.4048252,229.86182,275.65088,10.8461,375.42,25.1632,30.3319,42.0384,39.1004
1980-04-18 14:16:22,1,1.14286,7.85714,6.82857,0.670668,1,1,128343.0,91192.6,1694,0.73551464,-5.4048977,229.85034,275.65112,11.8856,373.348,26.7776,28.8983,46.0304,38.8005
1980-04-18 14:17:43,1,1.52857,7.85714,6.4,0.81866,1,1,138912.0,89705.8,1694,0.73550808,-5.4049702,229.83496,275.65137,11.7262,378.838,24.0965,25.299,47.8881,38.4829
1980-04-18 14:19:04,1,0.728571,7.9,6.88571,0.457143,1,1,104463.0,81137.0,1694,0.73549491,-5.4051161,229.82349,275.65161,10.1873,372.441,31.0388,26.037,41.5278,36.5989
1980-04-18 14:20:25,1,0.514286,7.45714,7.71429,0.494872,1,1,109519.0,97538.2,1694,0.73548836,-5.4051886,229.81201,275.65186,11.3282,371.089,28.1476,28.0369,42.5209,40.1278
1980-04-18 14:21:46,1,-0.257143,7.22857,8.07143,0.621716,1,1,100256.0,90464.4,1694,0.73548174,-5.405262,229.80054,275.6521,10.2292,367.399,26.316,34.3859,40.6829,38.6453
1980-04-18 14:23:07,1,0.171429,7.65714,7.21429,0.563154,1,1,120419.0,100200.0,1694,0.73546857,-5.405407,229.78906,275.65234,10.8836,364.876,26.5269,31.314,44.5867,40.6716
1980-04-18 14:24:28,1,0.7625,6.65,8.0625,0.968084,1,1,134298.0,88672.1,1694,0.73546201,-5.4054794,229.77759,275.65259,11.2037,369.791,26.2922,29.0769,47.0861,38.2606
1980-04-18 14:25:49,1,1.61429,5.85714,8.6,0.818161,1,1,129263.0,95133.7,1694,0.73545539,-5.4055529,229.76221,275.65283,10.9873,380.967,18.223,36.0972,46.195,39.6301
1980-04-18 14:27:10,1,-0.3375,5.9375,9.2875,0.428114,1,1,164613.0,108233.0,1694,0.73544228,-5.4056978,229.75073,275.65308,12.279,360.199,16.709,35.3711,52.1303,42.2704
1980-04-18 14:28:31,1,1.21429,6.25714,8.27143,1.0184,1,1,98582.1,86100.1,1694,0.73543566,-5.4057703,229.73926,275.65332,11.3112,374.981,19.9551,38.5563,40.3419,37.7016
1980-04-18 14:29:52,1,1.31429,5.84286,8.51429,0.742033,1,1,156955.0,117360.0,1694,0.73542911,-5.4058437,229.72778,275.65356,13.0189,375.67,16.9336,35.1787,50.9032,44.0167